Location: Chagrin Falls Park
(41.4139°N, 81.3865°W)
Time: 03:55:49
(UTC+00:00)

STARLINK-2717 - Pass Details

Date: 31 July 2021
Orbit: 546 x 548 km, 53.1° (Epoch: 21 September)

Event Time Altitude Azimuth Distance (km) Brightness Sun altitude
Rises 01:05:02 0° 310° (NW) 2,723 9.4 -4.3°
Reaches altitude 10° 01:07:20 10° 315° (NW) 1,826 7.8 -4.6°
Maximum altitude 01:11:23 51° 32° (NNE) 696 4.1 -5.3°
Drops below altitude 10° 01:15:25 10° 110° (ESE) 1,817 5.6 -5.9°
Enters shadow 01:15:59 - 111° (ESE) 2,040 5.9 -6.0°
